,,PA_Meas_PMT16A,,PR_Meas_QMR101_102,,RH_Meas_QMH101,,SR_Meas_QMS101,,TA_Meas_QMH101,,GenWind,,GenWind,
time,status,PA,status,PR,status,RH,status,SR,status,TA,status,DirAvg,status,SpdAvg,
2011-06-11, 00:00:05,VALID,917.652,VALID,0,VALID,92.2814,VALID,0,VALID,20.5399,VALID,359,VALID,0.708984,
2011-06-11, 00:01:05,VALID,917.643,VALID,0,VALID,92.1747,VALID,0,VALID,20.5414,VALID,359,VALID,0.820313,
2011-06-11, 00:02:05,VALID,917.633,VALID,0,VALID,92.3653,VALID,0,VALID,20.5009,VALID,359,VALID,1.15,
2011-06-11, 00:03:05,VALID,917.632,VALID,0,VALID,92.6474,VALID,0,VALID,20.5009,VALID,359,VALID,1.54961,
2011-06-11, 00:04:05,VALID,917.588,VALID,0,VALID,92.7617,VALID,0,VALID,20.5204,VALID,359,VALID,1.60469,
2011-06-11, 00:05:05,VALID,917.604,VALID,0,VALID,92.5864,VALID,0,VALID,20.5789,VALID,355,VALID,0.830078,
2011-06-11, 00:06:05,VALID,917.577,VALID,0,VALID,92.472,VALID,0,VALID,20.5984,VALID,355,VALID,1.19883,
2011-06-11, 00:07:05,VALID,917.576,VALID,0,VALID,92.3424,VALID,0,VALID,20.639,VALID,355,VALID,0.877734,
2011-06-11, 00:08:05,VALID,917.567,VALID,0,VALID,92.3501,VALID,0,VALID,20.6194,VALID,355,VALID,0.602344,
2011-06-11, 00:09:05,VALID,917.531,VALID,0,VALID,92.2205,VALID,0,VALID,20.6179,VALID,355,VALID,0.730859,
2011-06-11, 00:10:05,VALID,917.548,VALID,0,VALID,92.2205,VALID,0,VALID,20.5789,VALID,355,VALID,1.17031,
2011-06-11, 00:11:05,VALID,917.524,VALID,0,VALID,92.6169,VALID,0,VALID,20.6194,VALID,355,VALID,1.05859,
2011-06-11, 00:12:05,VALID,917.511,VALID,0,VALID,92.4415,VALID,0,VALID,20.6194,VALID,355,VALID,1.43945,
2011-06-11, 00:13:05,VALID,917.507,VALID,0,VALID,92.4263,VALID,0,VALID,20.6194,VALID,355,VALID,1.17813,
2011-06-11, 00:14:05,VALID,917.495,VALID,0,VALID,92.594,VALID,0,VALID,20.6194,VALID,355,VALID,1.45469,
2011-06-11, 00:15:05,VALID,917.459,VALID,0,VALID,92.7465,VALID,0,VALID,20.6179,VALID,355,VALID,0.973437,
2011-06-11, 00:16:05,VALID,917.47,VALID,0,VALID,92.777,VALID,0,VALID,20.6585,VALID,355,VALID,0.828516,
2011-06-11, 00:17:05,VALID,917.437,VALID,0,VALID,92.8532,VALID,0,VALID,20.6764,VALID,331,VALID,0.905469,
2011-06-11, 00:18:05,VALID,917.437,VALID,0,VALID,92.5635,VALID,0,VALID,20.7154,VALID,349,VALID,0.703906,
2011-06-11, 00:19:05,VALID,917.369,VALID,0,VALID,92.6093,VALID,0,VALID,20.7349,VALID,349,VALID,0.501172,
2011-06-11, 00:20:05,VALID,917.335,VALID,0,VALID,92.5788,VALID,0,VALID,20.7544,VALID,349,VALID,0.813281,
2011-06-11, 00:21:05,VALID,917.27,VALID,0,VALID,92.5559,VALID,0,VALID,20.795,VALID,349,VALID,0.840234,
2011-06-11, 00:22:05,VALID,917.253,VALID,0,VALID,92.411,VALID,0,VALID,20.7934,VALID,349,VALID,0.921875,
2011-06-11, 00:23:05,VALID,917.203,VALID,0,VALID,92.3958,VALID,0,VALID,20.7934,VALID,349,VALID,0.652344,
2011-06-11, 00:24:05,VALID,917.154,VALID,0,VALID,92.5102,VALID,0,VALID,20.8129,VALID,349,VALID,0.65625,
2011-06-11, 00:25:05,VALID,917.161,VALID,0,VALID,92.3958,VALID,0,VALID,20.8129,VALID,349,VALID,0.759375,
2011-06-11, 00:26:05,VALID,917.143,VALID,0,VALID,92.2967,VALID,0,VALID,20.7934,VALID,349,VALID,0.537109,
2011-06-11, 00:27:05,VALID,917.134,VALID,0,VALID,92.3424,VALID,0,VALID,20.795,VALID,349,VALID,0.564453,
2011-06-11, 00:28:05,VALID,917.155,VALID,0,VALID,92.533,VALID,0,VALID,20.7544,VALID,349,VALID,0.422656,
2011-06-11, 00:29:05,VALID,917.188,VALID,0,VALID,92.6321,VALID,0,VALID,20.7365,VALID,349,VALID,0.486328,
2011-06-11, 00:30:05,VALID,917.194,VALID,0,VALID,92.655,VALID,0,VALID,20.6959,VALID,349,VALID,0,
2011-06-11, 00:31:05,VALID,917.212,VALID,0,VALID,92.5864,VALID,0,VALID,20.6959,VALID,349,VALID,0.221094,
2011-06-11, 00:32:05,VALID,917.207,VALID,0,VALID,92.8151,VALID,0,VALID,20.6764,VALID,349,VALID,0.526563,
2011-06-11, 00:33:05,VALID,917.222,VALID,0,VALID,92.6321,VALID,0,VALID,20.678,VALID,349,VALID,0.589844,
2011-06-11, 00:34:05,VALID,917.215,VALID,0,VALID,92.838,VALID,0.107441,VALID,20.639,VALID,349,VALID,0.857422,
2011-06-11, 00:35:05,VALID,917.272,VALID,0,VALID,93.181,VALID,0,VALID,20.5789,VALID,349,VALID,1.07656,
2011-06-11, 00:36:05,VALID,917.248,VALID,0,VALID,93.5927,VALID,0,VALID,20.5594,VALID,349,VALID,1.39648,
2011-06-11, 00:37:05,VALID,917.269,VALID,0,VALID,93.7985,VALID,0,VALID,20.5789,VALID,349,VALID,1.21641,
2011-06-11, 00:38:05,VALID,917.299,VALID,0,VALID,93.7756,VALID,0,VALID,20.6194,VALID,349,VALID,1.54492,
2011-06-11, 00:39:05,VALID,917.301,VALID,0,VALID,93.6384,VALID,0,VALID,20.6179,VALID,349,VALID,1.01172,
2011-06-11, 00:40:05,VALID,917.302,VALID,0,VALID,93.8061,VALID,0.107441,VALID,20.6374,VALID,349,VALID,1.27539,
2011-06-11, 00:41:05,VALID,917.279,VALID,0,VALID,93.8214,VALID,0,VALID,20.6569,VALID,349,VALID,1.35273,
2011-06-11, 00:42:05,VALID,917.264,VALID,0,VALID,93.7299,VALID,0,VALID,20.6764,VALID,349,VALID,1.10273,
2011-06-11, 00:43:05,VALID,917.19,VALID,0,VALID,93.6079,VALID,0,VALID,20.717,VALID,349,VALID,0.892969,
2011-06-11, 00:44:05,VALID,917.151,VALID,0,VALID,93.7985,VALID,0,VALID,20.7349,VALID,335,VALID,1.66758,
2011-06-11, 00:45:05,VALID,917.129,VALID,0,VALID,93.6308,VALID,0,VALID,20.7349,VALID,347,VALID,0.871875,
2011-06-11, 00:46:05,VALID,917.123,VALID,0,VALID,93.5317,VALID,0,VALID,20.7544,VALID,347,VALID,1.3543,
2011-06-11, 00:47:05,VALID,917.155,VALID,0,VALID,93.3945,VALID,0,VALID,20.756,VALID,347,VALID,1.26602,
2011-06-11, 00:48:05,VALID,917.147,VALID,0,VALID,93.3716,VALID,0,VALID,20.7755,VALID,347,VALID,1.23633,
2011-06-11, 00:49:05,VALID,917.16,VALID,0,VALID,93.4173,VALID,0,VALID,20.7544,VALID,347,VALID,1.43984,
2011-06-11, 00:50:05,VALID,917.153,VALID,0,VALID,93.5012,VALID,0,VALID,20.756,VALID,347,VALID,1.62383,
2011-06-11, 00:51:05,VALID,917.137,VALID,0,VALID,93.7375,VALID,0,VALID,20.756,VALID,347,VALID,1.19219,
2011-06-11, 00:52:05,VALID,917.118,VALID,0,VALID,93.6003,VALID,0,VALID,20.7365,VALID,347,VALID,1.1043,
2011-06-11, 00:53:05,VALID,917.124,VALID,0,VALID,93.2954,VALID,0,VALID,20.6959,VALID,347,VALID,1.2543,
2011-06-11, 00:54:05,VALID,917.094,VALID,0,VALID,93.5164,VALID,0,VALID,20.6374,VALID,347,VALID,1.49375,
2011-06-11, 00:55:05,VALID,917.083,VALID,0,VALID,93.9357,VALID,0,VALID,20.6179,VALID,347,VALID,1.53867,
2011-06-11, 00:56:05,VALID,917.072,VALID,0,VALID,94.0806,VALID,0,VALID,20.639,VALID,347,VALID,1.28359,
2011-06-11, 00:57:05,VALID,917.078,VALID,0,VALID,94.0806,VALID,0,VALID,20.6179,VALID,347,VALID,1.01914,
2011-06-11, 00:58:05,VALID,917.046,VALID,0,VALID,94.1187,VALID,0,VALID,20.639,VALID,347,VALID,1.17227,
2011-06-11, 00:59:05,VALID,917.015,VALID,0,VALID,94.1187,VALID,0,VALID,20.6179,VALID,347,VALID,1.11758,
2011-06-11, 01:00:05,VALID,917.011,VALID,0,VALID,94.3017,VALID,0,VALID,20.6179,VALID,347,VALID,1.59141,
2011-06-11, 01:01:05,VALID,916.954,VALID,0,VALID,94.3626,VALID,0,VALID,20.6585,VALID,347,VALID,1.13477,
2011-06-11, 01:02:05,VALID,916.927,VALID,0,VALID,94.2635,VALID,0,VALID,20.6179,VALID,347,VALID,0.902344,
2011-06-11, 01:03:05,VALID,916.867,VALID,0,VALID,94.3931,VALID,0,VALID,20.6374,VALID,347,VALID,1.4043,
2011-06-11, 01:04:05,VALID,916.838,VALID,0,VALID,94.5151,VALID,0,VALID,20.6585,VALID,347,VALID,1.36328,
2011-06-11, 01:05:05,VALID,916.806,VALID,0,VALID,94.5761,VALID,0,VALID,20.6585,VALID,347,VALID,1.49258,
2011-06-11, 01:06:05,VALID,916.765,VALID,0,VALID,94.6142,VALID,0,VALID,20.6374,VALID,347,VALID,0.939062,
2011-06-11, 01:07:05,VALID,916.744,VALID,0,VALID,94.6828,VALID,0,VALID,20.6358,VALID,347,VALID,0.895703,
2011-06-11, 01:08:05,VALID,916.727,VALID,0,VALID,94.6828,VALID,0,VALID,20.6764,VALID,347,VALID,1.125,
2011-06-11, 01:09:05,VALID,916.703,VALID,0,VALID,94.6981,VALID,0,VALID,20.6959,VALID,347,VALID,0.926562,
2011-06-11, 01:10:05,VALID,916.646,VALID,0,VALID,94.7667,VALID,0,VALID,20.7365,VALID,347,VALID,1.36914,
2011-06-11, 01:11:05,VALID,916.584,VALID,0,VALID,94.7209,VALID,0,VALID,20.7154,VALID,347,VALID,0.543359,
2011-06-11, 01:12:05,VALID,916.564,VALID,0,VALID,94.6218,VALID,0,VALID,20.7349,VALID,347,VALID,0.767187,
2011-06-11, 01:13:05,VALID,916.529,VALID,0,VALID,94.6066,VALID,0,VALID,20.7544,VALID,325,VALID,1.10273,
2011-06-11, 01:14:05,VALID,916.493,VALID,0,VALID,94.5685,VALID,0,VALID,20.7739,VALID,322,VALID,0.882031,
2011-06-11, 01:15:05,VALID,916.457,VALID,0,VALID,94.4389,VALID,0,VALID,20.7544,VALID,322,VALID,0.682813,
2011-06-11, 01:16:05,VALID,916.414,VALID,0,VALID,94.3474,VALID,0,VALID,20.7544,VALID,322,VALID,0.528906,
2011-06-11, 01:17:05,VALID,916.403,VALID,0,VALID,94.3626,VALID,0,VALID,20.7349,VALID,322,VALID,0.657812,
2011-06-11, 01:18:05,VALID,916.361,VALID,0,VALID,94.477,VALID,0,VALID,20.7349,VALID,346,VALID,1.08047,
2011-06-11, 01:19:05,VALID,916.312,VALID,0,VALID,94.5837,VALID,0,VALID,20.7349,VALID,349,VALID,1.01484,
2011-06-11, 01:20:05,VALID,916.297,VALID,0,VALID,94.5761,VALID,0,VALID,20.7349,VALID,349,VALID,1.3668,
2011-06-11, 01:21:05,VALID,916.285,VALID,0,VALID,94.5837,VALID,0,VALID,20.7349,VALID,27,VALID,1.16133,
2011-06-11, 01:22:05,VALID,916.21,VALID,0,VALID,94.5837,VALID,0,VALID,20.7349,VALID,17,VALID,1.44531,
2011-06-11, 01:23:05,VALID,916.224,VALID,0,VALID,94.6676,VALID,0,VALID,20.7154,VALID,21,VALID,1.51563,
2011-06-11, 01:24:05,VALID,916.226,VALID,0,VALID,94.7057,VALID,0,VALID,20.7349,VALID,21,VALID,1.19492,
2011-06-11, 01:25:05,VALID,916.221,VALID,0,VALID,94.7667,VALID,0,VALID,20.7154,VALID,22,VALID,1.22617,
2011-06-11, 01:26:05,VALID,916.226,VALID,0,VALID,94.7819,VALID,0,VALID,20.7349,VALID,30,VALID,1.84375,
2011-06-11, 01:27:05,VALID,916.244,VALID,0,VALID,94.7896,VALID,0,VALID,20.7154,VALID,29,VALID,1.18594,
2011-06-11, 01:28:05,VALID,916.191,VALID,0,VALID,94.8505,VALID,0,VALID,20.7544,VALID,29,VALID,1.18086,
2011-06-11, 01:29:05,VALID,916.163,VALID,0,VALID,94.8734,VALID,0,VALID,20.7544,VALID,29,VALID,0.6375,
2011-06-11, 01:30:05,VALID,916.188,VALID,0,VALID,94.8582,VALID,0,VALID,20.7739,VALID,28,VALID,0.876172,
2011-06-11, 01:31:05,VALID,916.182,VALID,0,VALID,94.8887,VALID,0,VALID,20.7739,VALID,28,VALID,1.20586,
2011-06-11, 01:32:05,VALID,916.204,VALID,0,VALID,94.8658,VALID,0,VALID,20.7934,VALID,28,VALID,1.18203,
2011-06-11, 01:33:05,VALID,916.232,VALID,0,VALID,94.9039,VALID,0,VALID,20.7723,VALID,13,VALID,1.83281,
2011-06-11, 01:34:05,VALID,916.28,VALID,0,VALID,94.8658,VALID,0,VALID,20.8535,VALID,360,VALID,0.825391,
2011-06-11, 01:35:05,VALID,916.318,VALID,0,VALID,94.8353,VALID,0,VALID,20.8714,VALID,360,VALID,0.73125,
2011-06-11, 01:36:05,VALID,916.344,VALID,0,VALID,94.6828,VALID,0,VALID,20.8714,VALID,360,VALID,0.612891,
2011-06-11, 01:37:05,VALID,916.339,VALID,0,VALID,94.5837,VALID,0,VALID,20.912,VALID,360,VALID,0.658203,
2011-06-11, 01:38:05,VALID,916.288,VALID,0,VALID,94.3931,VALID,0,VALID,20.9105,VALID,360,VALID,0.773828,
2011-06-11, 01:39:05,VALID,916.243,VALID,0,VALID,94.3626,VALID,0,VALID,20.93,VALID,360,VALID,0.479688,
2011-06-11, 01:40:05,VALID,916.19,VALID,0,VALID,94.294,VALID,0,VALID,20.93,VALID,360,VALID,0.658594,
2011-06-11, 01:41:05,VALID,916.15,VALID,0,VALID,94.2102,VALID,0,VALID,20.9495,VALID,360,VALID,0.338281,
2011-06-11, 01:42:05,VALID,916.118,VALID,0,VALID,94.1568,VALID,0,VALID,20.9495,VALID,360,VALID,0,
2011-06-11, 01:43:05,VALID,916.089,VALID,0,VALID,94.0958,VALID,0,VALID,20.9885,VALID,360,VALID,0.152734,
2011-06-11, 01:44:05,VALID,916.054,VALID,0,VALID,94.0806,VALID,0,VALID,21.008,VALID,360,VALID,0,
2011-06-11, 01:45:05,VALID,916.052,VALID,0,VALID,93.9967,VALID,0,VALID,21.008,VALID,360,VALID,0.110547,
2011-06-11, 01:46:05,VALID,916.028,VALID,0,VALID,93.9052,VALID,0,VALID,21.0291,VALID,360,VALID,0.198828,
2011-06-11, 01:47:05,VALID,915.994,VALID,0,VALID,93.8366,VALID,0,VALID,20.9885,VALID,360,VALID,0.511328,
2011-06-11, 01:48:05,VALID,916.002,VALID,0,VALID,93.8671,VALID,0,VALID,20.9706,VALID,1,VALID,0.952734,
2011-06-11, 01:49:05,VALID,915.962,VALID,0,VALID,93.951,VALID,0,VALID,20.9105,VALID,13,VALID,0.65,
2011-06-11, 01:50:05,VALID,915.919,VALID,0,VALID,94.0043,VALID,0,VALID,20.8714,VALID,13,VALID,0.834766,
2011-06-11, 01:51:05,VALID,915.88,VALID,0,VALID,94.0806,VALID,0,VALID,20.8519,VALID,13,VALID,1.04961,
2011-06-11, 01:52:05,VALID,915.851,VALID,0,VALID,94.0882,VALID,0,VALID,20.8324,VALID,13,VALID,0.991406,
2011-06-11, 01:53:05,VALID,915.836,VALID,0,VALID,94.0806,VALID,0,VALID,20.8324,VALID,13,VALID,0.405859,
2011-06-11, 01:54:05,VALID,915.781,VALID,0,VALID,94.0806,VALID,0,VALID,20.8519,VALID,13,VALID,0.477734,
2011-06-11, 01:55:05,VALID,915.731,VALID,0,VALID,94.0348,VALID,0,VALID,20.8113,VALID,13,VALID,0.424219,
2011-06-11, 01:56:05,VALID,915.687,VALID,0,VALID,94.0806,VALID,0,VALID,20.8324,VALID,13,VALID,0.615234,
2011-06-11, 01:57:05,VALID,915.667,VALID,0,VALID,94.1492,VALID,0,VALID,20.8324,VALID,13,VALID,0.510547,
2011-06-11, 01:58:05,VALID,915.632,VALID,0,VALID,94.0958,VALID,0,VALID,20.834,VALID,13,VALID,0.713672,
2011-06-11, 01:59:05,VALID,915.646,VALID,0,VALID,94.0577,VALID,0,VALID,20.873,VALID,13,VALID,0.619141,
2011-06-11, 02:00:05,VALID,915.679,VALID,0,VALID,94.0501,VALID,0,VALID,20.8519,VALID,13,VALID,0.737891,
2011-06-11, 02:01:05,VALID,915.714,VALID,0,VALID,94.0577,VALID,0,VALID,20.873,VALID,13,VALID,0.764063,
2011-06-11, 02:02:05,VALID,915.807,VALID,0,VALID,94.1263,VALID,0,VALID,20.873,VALID,13,VALID,0.849609,
2011-06-11, 02:03:05,VALID,915.89,VALID,0,VALID,94.1568,VALID,0,VALID,20.8324,VALID,13,VALID,0.814062,
2011-06-11, 02:04:05,VALID,915.9,VALID,0,VALID,94.0653,VALID,0,VALID,20.8519,VALID,13,VALID,0.709375,
2011-06-11, 02:05:05,VALID,915.925,VALID,0,VALID,94.0577,VALID,0,VALID,20.873,VALID,13,VALID,0.310547,
2011-06-11, 02:06:05,VALID,915.92,VALID,0,VALID,94.0806,VALID,0,VALID,20.8535,VALID,13,VALID,0.301953,
2011-06-11, 02:07:05,VALID,915.912,VALID,0,VALID,94.0348,VALID,0,VALID,20.8324,VALID,13,VALID,0.406641,
2011-06-11, 02:08:05,VALID,915.962,VALID,0,VALID,94.0348,VALID,0,VALID,20.8324,VALID,13,VALID,0.373437,
2011-06-11, 02:09:05,VALID,915.965,VALID,0,VALID,93.951,VALID,0,VALID,20.8925,VALID,13,VALID,0.392188,
2011-06-11, 02:10:05,VALID,915.985,VALID,0,VALID,93.9434,VALID,0,VALID,20.8925,VALID,13,VALID,0.804297,
2011-06-11, 02:11:05,VALID,916.023,VALID,0,VALID,93.8824,VALID,0,VALID,20.8714,VALID,13,VALID,1.01602,
2011-06-11, 02:12:05,VALID,916.052,VALID,0,VALID,93.829,VALID,0,VALID,20.912,VALID,13,VALID,1.05313,
2011-06-11, 02:13:05,VALID,916.076,VALID,0,VALID,93.7299,VALID,0,VALID,20.93,VALID,13,VALID,1.1082,
2011-06-11, 02:14:05,VALID,916.054,VALID,0,VALID,93.6232,VALID,0,VALID,20.9495,VALID,25,VALID,1.09375,
2011-06-11, 02:15:05,VALID,916.035,VALID,0,VALID,93.5393,VALID,0,VALID,20.9885,VALID,16,VALID,0.957812,
2011-06-11, 02:16:05,VALID,915.996,VALID,0,VALID,93.2039,VALID,0,VALID,20.9901,VALID,16,VALID,1.30195,
2011-06-11, 02:17:05,VALID,916.005,VALID,0,VALID,92.9218,VALID,0,VALID,21.008,VALID,357,VALID,0.850391,
2011-06-11, 02:18:05,VALID,915.94,VALID,0,VALID,92.8837,VALID,0,VALID,21.0275,VALID,357,VALID,0.185156,
2011-06-11, 02:19:05,VALID,915.909,VALID,0,VALID,92.8837,VALID,0,VALID,21.0291,VALID,357,VALID,0.00195313,
2011-06-11, 02:20:05,VALID,915.833,VALID,0,VALID,92.7998,VALID,0,VALID,21.0275,VALID,357,VALID,1.00508,
2011-06-11, 02:21:05,VALID,915.78,VALID,0,VALID,92.7312,VALID,0,VALID,21.008,VALID,357,VALID,0.570703,
2011-06-11, 02:22:05,VALID,915.708,VALID,0,VALID,92.6321,VALID,0,VALID,21.008,VALID,357,VALID,0.439453,
2011-06-11, 02:23:05,VALID,915.699,VALID,0,VALID,92.7465,VALID,0,VALID,20.969,VALID,357,VALID,0.549219,
2011-06-11, 02:24:05,VALID,915.706,VALID,0,VALID,92.8989,VALID,0,VALID,20.9706,VALID,357,VALID,0.7625,
2011-06-11, 02:25:05,VALID,915.681,VALID,0,VALID,93.0133,VALID,0,VALID,20.93,VALID,357,VALID,0.991406,
2011-06-11, 02:26:05,VALID,915.686,VALID,0,VALID,93.1886,VALID,0,VALID,20.9105,VALID,357,VALID,0.733594,
2011-06-11, 02:27:05,VALID,915.706,VALID,0,VALID,93.3335,VALID,0,VALID,20.891,VALID,357,VALID,0.960547,
2011-06-11, 02:28:05,VALID,915.714,VALID,0,VALID,93.3792,VALID,0,VALID,20.8714,VALID,357,VALID,0.953906,
2011-06-11, 02:29:05,VALID,915.738,VALID,0,VALID,93.425,VALID,0,VALID,20.8714,VALID,357,VALID,0.442187,
2011-06-11, 02:30:04,VALID,915.743,VALID,0,VALID,93.4631,VALID,0,VALID,20.8519,VALID,357,VALID,0.613672,
2011-06-11, 02:31:04,VALID,915.734,VALID,0,VALID,93.5698,VALID,0,VALID,20.8129,VALID,357,VALID,0.594531,
2011-06-11, 02:32:04,VALID,915.726,VALID,0,VALID,93.6918,VALID,0,VALID,20.7934,VALID,357,VALID,0.435937,
2011-06-11, 02:33:04,VALID,915.671,VALID,0,VALID,93.8443,VALID,0,VALID,20.7739,VALID,357,VALID,0.782812,
2011-06-11, 02:34:04,VALID,915.645,VALID,0,VALID,93.9738,VALID,0,VALID,20.7739,VALID,357,VALID,0.374219,
2011-06-11, 02:35:04,VALID,915.657,VALID,0,VALID,94.0348,VALID,0,VALID,20.7739,VALID,357,VALID,0.501562,
2011-06-11, 02:36:04,VALID,915.66,VALID,0,VALID,94.073,VALID,0,VALID,20.7544,VALID,14,VALID,0.567969,
2011-06-11, 02:37:04,VALID,915.69,VALID,0,VALID,94.0958,VALID,0,VALID,20.7544,VALID,14,VALID,0.700391,
2011-06-11, 02:38:04,VALID,915.729,VALID,0,VALID,94.0348,VALID,0,VALID,20.756,VALID,14,VALID,0.944141,
2011-06-11, 02:39:04,VALID,915.762,VALID,0,VALID,94.0501,VALID,0,VALID,20.7544,VALID,14,VALID,0.921484,
2011-06-11, 02:40:04,VALID,915.763,VALID,0,VALID,93.9662,VALID,0,VALID,20.7544,VALID,14,VALID,0.515234,
2011-06-11, 02:41:04,VALID,915.766,VALID,0,VALID,93.9815,VALID,0,VALID,20.7544,VALID,14,VALID,0.642969,
2011-06-11, 02:42:04,VALID,915.733,VALID,0,VALID,93.9357,VALID,0,VALID,20.8145,VALID,14,VALID,0.519922,
2011-06-11, 02:43:04,VALID,915.744,VALID,0,VALID,93.8519,VALID,0,VALID,20.8324,VALID,14,VALID,0.510938,
2011-06-11, 02:44:04,VALID,915.751,VALID,0,VALID,93.829,VALID,0,VALID,20.8535,VALID,14,VALID,0.481641,
2011-06-11, 02:45:04,VALID,915.726,VALID,0,VALID,93.9205,VALID,0,VALID,20.8746,VALID,14,VALID,0.916797,
2011-06-11, 02:46:04,VALID,915.724,VALID,0,VALID,94.0043,VALID,0,VALID,20.8145,VALID,14,VALID,0.428125,
2011-06-11, 02:47:04,VALID,915.703,VALID,0,VALID,94.0806,VALID,0,VALID,20.7739,VALID,14,VALID,0.572656,
2011-06-11, 02:48:04,VALID,915.734,VALID,0,VALID,94.1416,VALID,0,VALID,20.7544,VALID,14,VALID,0.468359,
2011-06-11, 02:49:04,VALID,915.742,VALID,0,VALID,94.0806,VALID,0,VALID,20.7544,VALID,14,VALID,0.51875,
2011-06-11, 02:50:04,VALID,915.776,VALID,0,VALID,94.0501,VALID,0,VALID,20.7544,VALID,14,VALID,0.584375,
2011-06-11, 02:51:04,VALID,915.805,VALID,0,VALID,93.89,VALID,0,VALID,20.7771,VALID,14,VALID,0.698828,
2011-06-11, 02:52:04,VALID,915.822,VALID,0,VALID,93.7756,VALID,0,VALID,20.8177,VALID,14,VALID,0.684375,
2011-06-11, 02:53:04,VALID,915.848,VALID,0,VALID,93.768,VALID,0,VALID,20.756,VALID,14,VALID,0.898828,
2011-06-11, 02:54:04,VALID,915.839,VALID,0,VALID,93.7833,VALID,0,VALID,20.6928,VALID,14,VALID,0.903516,
2011-06-11, 02:55:04,VALID,915.901,VALID,0,VALID,93.8061,VALID,0,VALID,20.7365,VALID,14,VALID,0.741406,
2011-06-11, 02:56:04,VALID,915.91,VALID,0,VALID,93.707,VALID,0,VALID,20.756,VALID,14,VALID,1.17813,
2011-06-11, 02:57:04,VALID,915.955,VALID,0,VALID,93.6308,VALID,0,VALID,20.795,VALID,14,VALID,0.832812,
2011-06-11, 02:58:04,VALID,915.984,VALID,0,VALID,93.5088,VALID,0,VALID,20.7123,VALID,14,VALID,0.675781,
2011-06-11, 02:59:04,VALID,915.995,VALID,0,VALID,93.4326,VALID,0,VALID,20.7755,VALID,14,VALID,0.504297,
2011-06-11, 03:00:04,VALID,916,VALID,0,VALID,93.3716,VALID,0,VALID,20.8567,VALID,14,VALID,0.58125,
2011-06-11, 03:01:04,VALID,916.008,VALID,0,VALID,93.2725,VALID,0,VALID,20.8145,VALID,14,VALID,0.447266,
2011-06-11, 03:02:04,VALID,916.023,VALID,0,VALID,93.2039,VALID,0,VALID,20.8145,VALID,14,VALID,0.117969,
2011-06-11, 03:03:04,VALID,915.972,VALID,0,VALID,92.7312,VALID,0,VALID,20.8145,VALID,14,VALID,0.903125,
2011-06-11, 03:04:04,VALID,915.993,VALID,0,VALID,92.6245,VALID,0,VALID,20.8324,VALID,14,VALID,0.315234,
2011-06-11, 03:05:04,VALID,915.978,VALID,0,VALID,92.19,VALID,0,VALID,20.8535,VALID,14,VALID,0.578516,
2011-06-11, 03:06:04,VALID,915.962,VALID,0,VALID,91.6945,VALID,0,VALID,20.873,VALID,14,VALID,0.424609,
2011-06-11, 03:07:04,VALID,915.993,VALID,0,VALID,91.5648,VALID,0,VALID,20.8293,VALID,14,VALID,0.138672,
2011-06-11, 03:08:04,VALID,915.984,VALID,0,VALID,91.3743,VALID,0,VALID,20.9331,VALID,14,VALID,0.482812,
2011-06-11, 03:09:04,VALID,916.011,VALID,0,VALID,91.3438,VALID,0,VALID,20.9479,VALID,14,VALID,0.619141,
2011-06-11, 03:10:04,VALID,916.038,VALID,0,VALID,91.2675,VALID,0,VALID,20.9885,VALID,14,VALID,0.70625,
2011-06-11, 03:11:04,VALID,916.06,VALID,0,VALID,91.2752,VALID,0,VALID,20.9885,VALID,14,VALID,0.780469,
2011-06-11, 03:12:04,VALID,916.038,VALID,0,VALID,91.3361,VALID,0,VALID,20.969,VALID,14,VALID,0.48125,
2011-06-11, 03:13:04,VALID,916.028,VALID,0,VALID,91.5496,VALID,0,VALID,20.9917,VALID,14,VALID,0.775781,
2011-06-11, 03:14:04,VALID,916.019,VALID,0,VALID,91.6487,VALID,0,VALID,20.9901,VALID,14,VALID,0.784766,
2011-06-11, 03:15:04,VALID,915.987,VALID,0,VALID,91.6258,VALID,0,VALID,20.9479,VALID,14,VALID,0.914063,
2011-06-11, 03:16:04,VALID,915.965,VALID,0,VALID,91.6182,VALID,0,VALID,20.9284,VALID,14,VALID,0.8625,
2011-06-11, 03:17:04,VALID,915.943,VALID,0,VALID,91.6868,VALID,0,VALID,20.9706,VALID,14,VALID,0.454688,
2011-06-11, 03:18:04,VALID,915.936,VALID,0,VALID,91.6258,VALID,0,VALID,20.9933,VALID,14,VALID,0.919141,
2011-06-11, 03:19:04,VALID,915.933,VALID,0,VALID,91.6716,VALID,0,VALID,20.93,VALID,14,VALID,0.59375,
2011-06-11, 03:20:04,VALID,915.933,VALID,0,VALID,91.6945,VALID,0,VALID,20.8878,VALID,14,VALID,0.421094,
2011-06-11, 03:21:04,VALID,915.927,VALID,0,VALID,91.824,VALID,0,VALID,20.9331,VALID,14,VALID,0.351953,
2011-06-11, 03:22:04,VALID,915.935,VALID,0,VALID,91.9003,VALID,0,VALID,20.8699,VALID,14,VALID,0.314453,
2011-06-11, 03:23:04,VALID,915.962,VALID,0,VALID,91.8927,VALID,0,VALID,20.891,VALID,14,VALID,0.112891,
2011-06-11, 03:24:04,VALID,915.911,VALID,0,VALID,91.885,VALID,0,VALID,20.8699,VALID,14,VALID,0,
2011-06-11, 03:25:04,VALID,915.938,VALID,0,VALID,91.9308,VALID,0,VALID,20.8504,VALID,14,VALID,0,
2011-06-11, 03:26:04,VALID,915.912,VALID,0,VALID,92.0604,VALID,0,VALID,20.8925,VALID,14,VALID,0.144922,
2011-06-11, 03:27:04,VALID,915.901,VALID,0,VALID,92.1137,VALID,0,VALID,20.873,VALID,14,VALID,0,
2011-06-11, 03:28:04,VALID,915.88,VALID,0,VALID,92.0146,VALID,0,VALID,20.873,VALID,14,VALID,0.003125,
2011-06-11, 03:29:04,VALID,915.856,VALID,0,VALID,91.9384,VALID,0,VALID,20.8113,VALID,14,VALID,0,
2011-06-11, 03:30:04,VALID,915.817,VALID,0,VALID,92.0223,VALID,0,VALID,20.8324,VALID,14,VALID,0.00273437,
2011-06-11, 03:31:04,VALID,915.785,VALID,0,VALID,92.1214,VALID,0,VALID,20.834,VALID,14,VALID,0.177344,
2011-06-11, 03:32:04,VALID,915.782,VALID,0,VALID,92.1595,VALID,0,VALID,20.795,VALID,14,VALID,0.189453,
2011-06-11, 03:33:04,VALID,915.76,VALID,0,VALID,92.2052,VALID,0,VALID,20.7755,VALID,14,VALID,0.225,
2011-06-11, 03:34:04,VALID,915.781,VALID,0,VALID,92.068,VALID,0,VALID,20.6928,VALID,14,VALID,0.00820312,
2011-06-11, 03:35:04,VALID,915.754,VALID,0,VALID,92.0832,VALID,0,VALID,20.7365,VALID,14,VALID,0,
2011-06-11, 03:36:04,VALID,915.785,VALID,0,VALID,92.1519,VALID,0,VALID,20.717,VALID,14,VALID,0,
2011-06-11, 03:37:04,VALID,915.814,VALID,0,VALID,92.3501,VALID,0,VALID,20.6585,VALID,14,VALID,0,
2011-06-11, 03:38:04,VALID,915.815,VALID,0,VALID,92.5483,VALID,0,VALID,20.5999,VALID,14,VALID,0.25625,
2011-06-11, 03:39:04,VALID,915.827,VALID,0,VALID,92.6779,VALID,0,VALID,20.5594,VALID,14,VALID,0.500781,
2011-06-11, 03:40:04,VALID,915.844,VALID,0,VALID,92.8608,VALID,0,VALID,20.4798,VALID,14,VALID,0.598047,
2011-06-11, 03:41:04,VALID,915.885,VALID,0,VALID,93.0438,VALID,0,VALID,20.4603,VALID,14,VALID,0.649219,
2011-06-11, 03:42:04,VALID,915.919,VALID,0,VALID,93.1429,VALID,0,VALID,20.4618,VALID,14,VALID,0.697266,
2011-06-11, 03:43:04,VALID,915.968,VALID,0,VALID,93.1124,VALID,0,VALID,20.4603,VALID,14,VALID,0.683984,
2011-06-11, 03:44:04,VALID,915.946,VALID,0,VALID,93.0362,VALID,0.107441,VALID,20.4829,VALID,14,VALID,0.579687,
2011-06-11, 03:45:04,VALID,915.978,VALID,0,VALID,93.1505,VALID,0,VALID,20.4018,VALID,14,VALID,0.751172,
2011-06-11, 03:46:04,VALID,915.984,VALID,0,VALID,93.2496,VALID,0,VALID,20.3823,VALID,14,VALID,0.860547,